Terminal Aerodrome Forecast
Issued by NWS

Home | Current Version | Previous Version | Text Only | Print | Product List | Glossary Off
Versions: 1 2 3 4 5 6 7 8 9 10 11 12 13 14 15 16 17 18 19 20 21 22 23

000
FTUS42 KMHX 181800 AAA
TAFISO
TAF AMD
KISO 181809Z 1818/1918 21007KT P6SM VCTS SCT025 BKN050CB
     FM190200 20005KT P6SM VCSH SCT050 BKN100
     FM190500 21005KT 4SM BR SCT050 BKN100
     FM191300 26007KT P6SM SCT035 BKN120
      AMD LTD TO CLD VIS AND WIND=

USA.gov is the U.S. government's official web portal to all federal, state and local government web resources and services.